This is the latest recevied weather packets stored in our database for station/object KN6CW-3. If no packets are shown the sender has not sent any weather packets the latest 10 day(s).
| Time | Temp. | Humidity | Pressure | Rain* | Wind** | Luminosity | Snow |
|---|---|---|---|---|---|---|---|
| 1777849314 | 11.67° C | 42% | 1012.3 hPa | 0 mm | - | 33 W/m² | - |
| 1777849013 | 11.67° C | 42% | 1012.2 hPa | 0 mm | - | 37 W/m² | - |
| 1777848413 | 12.22° C | 40% | 1012.1 hPa | 0 mm | - | 179 W/m² | - |
| 1777848112 | 12.22° C | 40% | 1012.2 hPa | 0 mm | - | 200 W/m² | - |
| 1777847812 | 12.22° C | 41% | 1012.1 hPa | 0 mm | - | 83 W/m² | - |
| 1777847512 | 12.22° C | 41% | 1012.1 hPa | 0 mm | - | 135 W/m² | - |
| 1777847212 | 12.22° C | 40% | 1012.1 hPa | 0 mm | - | 253 W/m² | - |
| 1777846911 | 12.22° C | 40% | 1012.1 hPa | 0 mm | - | 271 W/m² | - |
| 1777846611 | 12.22° C | 41% | 1012.2 hPa | 0 mm | - | 171 W/m² | - |
| 1777846311 | 12.22° C | 41% | 1012.1 hPa | 0 mm | - | 278 W/m² | - |
| 1777846010 | 12.22° C | 40% | 1012.1 hPa | 0 mm | - | 139 W/m² | - |
| 1777845710 | 12.78° C | 39% | 1012.3 hPa | 0 mm | - | 142 W/m² | - |
| 1777845410 | 12.78° C | 38% | 1012.1 hPa | 0 mm | - | 339 W/m² | - |
| 1777845109 | 12.78° C | 38% | 1012.2 hPa | 0 mm | - | 362 W/m² | - |
| 1777844809 | 13.33° C | 38% | 1012.1 hPa | 0 mm | - | 218 W/m² | - |
| 1777844509 | 12.78° C | 37% | 1012.1 hPa | 0 mm | - | 439 W/m² | - |
| 1777844212 | 12.78° C | 40% | 1012 hPa | 0 mm | - | 367 W/m² | - |
| 1777843908 | 12.22° C | 39% | 1012 hPa | 0 mm | - | 339 W/m² | - |
| 1777843608 | 12.22° C | 39% | 1011.9 hPa | 0 mm | - | 209 W/m² | - |
| 1777843308 | 12.22° C | 38% | 1011.9 hPa | 0 mm | - | 455 W/m² | - |
| 1777843007 | 11.67° C | 38% | 1012 hPa | 0 mm | - | 250 W/m² | - |
| 1777842707 | 11.67° C | 38% | 1011.9 hPa | 0 mm | - | 162 W/m² | - |
| 1777842407 | 12.22° C | 38% | 1011.9 hPa | 0 mm | - | 165 W/m² | - |
| 1777842107 | 12.22° C | 38% | 1011.8 hPa | 0 mm | - | 278 W/m² | - |
| 1777841806 | 12.78° C | 38% | 1011.8 hPa | 0 mm | - | 338 W/m² | - |
* Rain latest hour (hover to see other rain measurements)
** Current wind speed in m/s (hover to see current wind gust speed)